owner,sensor,date,latitude,longitude,air_temperature,qcFlag 
COMPS,ioos:station:USF.COMPS:C12:1,2015-01-01T00:05:00Z,27.4980,-83.7220,19.31,1111122 
COMPS,ioos:station:USF.COMPS:C12:1,2015-01-01T00:35:00Z,27.4980,-83.7220,19.18,1111122 
COMPS,ioos:station:USF.COMPS:C12:1,2015-01-01T01:05:00Z,27.4980,-83.7220,19.21,1111122 
COMPS,ioos:station:USF.COMPS:C12:1,2015-01-01T01:35:00Z,27.4980,-83.7220,19.17,1111122 
COMPS,ioos:station:USF.COMPS:C12:1,2015-01-01T02:05:00Z,27.4980,-83.7220,19.07,1111122 
COMPS,ioos:station:USF.COMPS:C12:1,2015-01-01T02:35:00Z,27.4980,-83.7220,18.96,1111122 
COMPS,ioos:station:USF.COMPS:C12:1,2015-01-01T03:05:00Z,27.4980,-83.7220,18.9,1111122 
COMPS,ioos:station:USF.COMPS:C12:1,2015-01-01T03:35:00Z,27.4980,-83.7220,18.91,1111122 
COMPS,ioos:station:USF.COMPS:C12:1,2015-01-01T04:05:00Z,27.4980,-83.7220,18.92,1111122 
COMPS,ioos:station:USF.COMPS:C12:1,2015-01-01T04:35:00Z,27.4980,-83.7220,18.9,1111122 
COMPS,ioos:station:USF.COMPS:C12:1,2015-01-01T05:05:00Z,27.4980,-83.7220,18.71,1111122 
COMPS,ioos:station:USF.COMPS:C12:1,2015-01-01T05:35:00Z,27.4980,-83.7220,18.59,1111122 
COMPS,ioos:station:USF.COMPS:C12:1,2015-01-01T06:05:00Z,27.4980,-83.7220,18.41,1111122 
COMPS,ioos:station:USF.COMPS:C12:1,2015-01-01T06:35:00Z,27.4980,-83.7220,18.48,1111122 
COMPS,ioos:station:USF.COMPS:C12:1,2015-01-01T07:05:00Z,27.4980,-83.7220,18.24,1111122 
COMPS,ioos:station:USF.COMPS:C12:1,2015-01-01T07:35:00Z,27.4980,-83.7220,18.24,1111122 
COMPS,ioos:station:USF.COMPS:C12:1,2015-01-01T08:05:00Z,27.4980,-83.7220,18.28,1111122 
COMPS,ioos:station:USF.COMPS:C12:1,2015-01-01T08:35:00Z,27.4980,-83.7220,18.23,1111122 
COMPS,ioos:station:USF.COMPS:C12:1,2015-01-01T09:05:00Z,27.4980,-83.7220,18.31,1111122 
COMPS,ioos:station:USF.COMPS:C12:1,2015-01-01T09:35:00Z,27.4980,-83.7220,18.38,1111122 
COMPS,ioos:station:USF.COMPS:C12:1,2015-01-01T10:05:00Z,27.4980,-83.7220,18.25,1111122 
COMPS,ioos:station:USF.COMPS:C12:1,2015-01-01T10:35:00Z,27.4980,-83.7220,18.24,1111122 
COMPS,ioos:station:USF.COMPS:C12:1,2015-01-01T11:05:00Z,27.4980,-83.7220,18.23,1111122 
COMPS,ioos:station:USF.COMPS:C12:1,2015-01-01T11:35:00Z,27.4980,-83.7220,17.96,1111122 
COMPS,ioos:station:USF.COMPS:C12:1,2015-01-01T12:05:00Z,27.4980,-83.7220,17.78,1111122 
COMPS,ioos:station:USF.COMPS:C12:1,2015-01-01T12:35:00Z,27.4980,-83.7220,17.69,1111122 
COMPS,ioos:station:USF.COMPS:C12:1,2015-01-01T13:05:00Z,27.4980,-83.7220,17.71,1111122 
COMPS,ioos:station:USF.COMPS:C12:1,2015-01-01T13:35:00Z,27.4980,-83.7220,17.81,1111122 
COMPS,ioos:station:USF.COMPS:C12:1,2015-01-01T14:05:00Z,27.4980,-83.7220,17.69,1111122 
COMPS,ioos:station:USF.COMPS:C12:1,2015-01-01T14:35:00Z,27.4980,-83.7220,17.67,1111122 
COMPS,ioos:station:USF.COMPS:C12:1,2015-01-01T15:05:00Z,27.4980,-83.7220,17.66,1111122 
COMPS,ioos:station:USF.COMPS:C12:1,2015-01-01T15:35:00Z,27.4980,-83.7220,17.83,1111122 
COMPS,ioos:station:USF.COMPS:C12:1,2015-01-01T16:05:00Z,27.4980,-83.7220,17.72,1111122 
COMPS,ioos:station:USF.COMPS:C12:1,2015-01-01T16:35:00Z,27.4980,-83.7220,17.75,1111122 
COMPS,ioos:station:USF.COMPS:C12:1,2015-01-01T17:05:00Z,27.4980,-83.7220,17.77,1111122 
COMPS,ioos:station:USF.COMPS:C12:1,2015-01-01T17:35:00Z,27.4980,-83.7220,17.94,1111122 
COMPS,ioos:station:USF.COMPS:C12:1,2015-01-01T18:05:00Z,27.4980,-83.7220,18.19,1111122 
COMPS,ioos:station:USF.COMPS:C12:1,2015-01-01T18:35:00Z,27.4980,-83.7220,18.48,1111122 
COMPS,ioos:station:USF.COMPS:C12:1,2015-01-01T19:05:00Z,27.4980,-83.7220,18.72,1111122 
COMPS,ioos:station:USF.COMPS:C12:1,2015-01-01T19:35:00Z,27.4980,-83.7220,18.71,1111122 
COMPS,ioos:station:USF.COMPS:C12:1,2015-01-01T20:05:00Z,27.4980,-83.7220,18.91,1111122 
COMPS,ioos:station:USF.COMPS:C12:1,2015-01-01T20:35:00Z,27.4980,-83.7220,19.0,1111122 
COMPS,ioos:station:USF.COMPS:C12:1,2015-01-01T21:05:00Z,27.4980,-83.7220,19.11,1111122 
COMPS,ioos:station:USF.COMPS:C12:1,2015-01-01T21:35:00Z,27.4980,-83.7220,19.02,1111122 
COMPS,ioos:station:USF.COMPS:C12:1,2015-01-01T22:05:00Z,27.4980,-83.7220,19.17,1111122 
COMPS,ioos:station:USF.COMPS:C12:1,2015-01-01T22:35:00Z,27.4980,-83.7220,19.5,1111122 
COMPS,ioos:station:USF.COMPS:C12:1,2015-01-01T23:05:00Z,27.4980,-83.7220,19.76,1111122 
COMPS,ioos:station:USF.COMPS:C12:1,2015-01-01T23:35:00Z,27.4980,-83.7220,20.01,1111122 
COMPS,ioos:station:USF.COMPS:C12:1,2015-01-02T00:05:00Z,27.4980,-83.7220,20.08,1111122 
COMPS,ioos:station:USF.COMPS:C12:1,2015-01-02T00:35:00Z,27.4980,-83.7220,20.34,1111122 
COMPS,ioos:station:USF.COMPS:C12:1,2015-01-02T01:05:00Z,27.4980,-83.7220,20.45,1111122 
COMPS,ioos:station:USF.COMPS:C12:1,2015-01-02T01:35:00Z,27.4980,-83.7220,20.54,1111122 
COMPS,ioos:station:USF.COMPS:C12:1,2015-01-02T02:05:00Z,27.4980,-83.7220,20.47,1111122 
COMPS,ioos:station:USF.COMPS:C12:1,2015-01-02T02:35:00Z,27.4980,-83.7220,20.58,1111122 
COMPS,ioos:station:USF.COMPS:C12:1,2015-01-02T03:05:00Z,27.4980,-83.7220,20.48,1111122 
COMPS,ioos:station:USF.COMPS:C12:1,2015-01-02T03:35:00Z,27.4980,-83.7220,20.59,1111122 
COMPS,ioos:station:USF.COMPS:C12:1,2015-01-02T05:05:00Z,27.4980,-83.7220,20.94,1111122 
COMPS,ioos:station:USF.COMPS:C12:1,2015-01-02T05:35:00Z,27.4980,-83.7220,20.9,1111122 
COMPS,ioos:station:USF.COMPS:C12:1,2015-01-02T06:05:00Z,27.4980,-83.7220,20.97,1111122 
COMPS,ioos:station:USF.COMPS:C12:1,2015-01-02T06:35:00Z,27.4980,-83.7220,20.95,1111122 
COMPS,ioos:station:USF.COMPS:C12:1,2015-01-02T07:05:00Z,27.4980,-83.7220,20.97,1111122 
COMPS,ioos:station:USF.COMPS:C12:1,2015-01-02T07:35:00Z,27.4980,-83.7220,20.68,1111122 
COMPS,ioos:station:USF.COMPS:C12:1,2015-01-02T08:05:00Z,27.4980,-83.7220,20.53,1111122 
COMPS,ioos:station:USF.COMPS:C12:1,2015-01-02T08:35:00Z,27.4980,-83.7220,20.52,1111122 
COMPS,ioos:station:USF.COMPS:C12:1,2015-01-02T09:05:00Z,27.4980,-83.7220,20.43,1111122 
COMPS,ioos:station:USF.COMPS:C12:1,2015-01-02T09:35:00Z,27.4980,-83.7220,20.35,1111122 
COMPS,ioos:station:USF.COMPS:C12:1,2015-01-02T10:05:00Z,27.4980,-83.7220,20.25,1111122 
COMPS,ioos:station:USF.COMPS:C12:1,2015-01-02T10:35:00Z,27.4980,-83.7220,20.07,1111122 
COMPS,ioos:station:USF.COMPS:C12:1,2015-01-02T11:05:00Z,27.4980,-83.7220,19.81,1111122 
COMPS,ioos:station:USF.COMPS:C12:1,2015-01-02T11:35:00Z,27.4980,-83.7220,19.79,1111122 
COMPS,ioos:station:USF.COMPS:C12:1,2015-01-02T12:05:00Z,27.4980,-83.7220,19.67,1111122 
COMPS,ioos:station:USF.COMPS:C12:1,2015-01-02T12:35:00Z,27.4980,-83.7220,19.63,1111122 
COMPS,ioos:station:USF.COMPS:C12:1,2015-01-02T13:05:00Z,27.4980,-83.7220,19.63,1111122 
COMPS,ioos:station:USF.COMPS:C12:1,2015-01-02T13:35:00Z,27.4980,-83.7220,19.65,1111122 
COMPS,ioos:station:USF.COMPS:C12:1,2015-01-02T14:05:00Z,27.4980,-83.7220,19.57,1111122 
COMPS,ioos:station:USF.COMPS:C12:1,2015-01-02T14:35:00Z,27.4980,-83.7220,19.64,1111122 
COMPS,ioos:station:USF.COMPS:C12:1,2015-01-02T15:05:00Z,27.4980,-83.7220,19.67,1111122 
COMPS,ioos:station:USF.COMPS:C12:1,2015-01-02T15:35:00Z,27.4980,-83.7220,19.67,1111122 
COMPS,ioos:station:USF.COMPS:C12:1,2015-01-02T16:05:00Z,27.4980,-83.7220,19.7,1111122 
COMPS,ioos:station:USF.COMPS:C12:1,2015-01-02T16:35:00Z,27.4980,-83.7220,19.7,1111122 
COMPS,ioos:station:USF.COMPS:C12:1,2015-01-02T17:05:00Z,27.4980,-83.7220,19.65,1111122 
COMPS,ioos:station:USF.COMPS:C12:1,2015-01-02T17:35:00Z,27.4980,-83.7220,19.56,1111122 
COMPS,ioos:station:USF.COMPS:C12:1,2015-01-02T18:05:00Z,27.4980,-83.7220,19.73,1111122 
COMPS,ioos:station:USF.COMPS:C12:1,2015-01-02T18:35:00Z,27.4980,-83.7220,19.82,1111122 
COMPS,ioos:station:USF.COMPS:C12:1,2015-01-02T19:05:00Z,27.4980,-83.7220,19.97,1111122 
COMPS,ioos:station:USF.COMPS:C12:1,2015-01-02T19:35:00Z,27.4980,-83.7220,19.97,1111122 
COMPS,ioos:station:USF.COMPS:C12:1,2015-01-02T20:05:00Z,27.4980,-83.7220,20.11,1111122 
COMPS,ioos:station:USF.COMPS:C12:1,2015-01-02T20:35:00Z,27.4980,-83.7220,20.16,1111122 
COMPS,ioos:station:USF.COMPS:C12:1,2015-01-02T21:05:00Z,27.4980,-83.7220,20.23,1111122 
COMPS,ioos:station:USF.COMPS:C12:1,2015-01-02T21:35:00Z,27.4980,-83.7220,20.21,1111122 
COMPS,ioos:station:USF.COMPS:C12:1,2015-01-02T22:05:00Z,27.4980,-83.7220,20.09,1111122 
COMPS,ioos:station:USF.COMPS:C12:1,2015-01-02T22:35:00Z,27.4980,-83.7220,20.26,1111122 
COMPS,ioos:station:USF.COMPS:C12:1,2015-01-02T23:05:00Z,27.4980,-83.7220,20.32,1111122 
COMPS,ioos:station:USF.COMPS:C12:1,2015-01-02T23:35:00Z,27.4980,-83.7220,20.37,1111122 
COMPS,ioos:station:USF.COMPS:C12:1,2015-01-03T00:05:00Z,27.4980,-83.7220,20.19,1111122 
COMPS,ioos:station:USF.COMPS:C12:1,2015-01-03T00:35:00Z,27.4980,-83.7220,20.24,1111122 
COMPS,ioos:station:USF.COMPS:C12:1,2015-01-03T01:05:00Z,27.4980,-83.7220,20.64,1111122 
COMPS,ioos:station:USF.COMPS:C12:1,2015-01-03T01:35:00Z,27.4980,-83.7220,21.44,1111122 
COMPS,ioos:station:USF.COMPS:C12:1,2015-01-03T02:05:00Z,27.4980,-83.7220,21.92,1111122 
COMPS,ioos:station:USF.COMPS:C12:1,2015-01-03T02:35:00Z,27.4980,-83.7220,22.22,1111122 
COMPS,ioos:station:USF.COMPS:C12:1,2015-01-03T03:05:00Z,27.4980,-83.7220,22.51,1111122 
COMPS,ioos:station:USF.COMPS:C12:1,2015-01-03T03:35:00Z,27.4980,-83.7220,22.31,1111122 
COMPS,ioos:station:USF.COMPS:C12:1,2015-01-03T05:05:00Z,27.4980,-83.7220,22.62,1111122 
COMPS,ioos:station:USF.COMPS:C12:1,2015-01-03T05:35:00Z,27.4980,-83.7220,22.46,1111122 
COMPS,ioos:station:USF.COMPS:C12:1,2015-01-03T06:05:00Z,27.4980,-83.7220,22.17,1111122 
COMPS,ioos:station:USF.COMPS:C12:1,2015-01-03T06:35:00Z,27.4980,-83.7220,22.21,1111122 
COMPS,ioos:station:USF.COMPS:C12:1,2015-01-03T07:05:00Z,27.4980,-83.7220,22.1,1111122 
COMPS,ioos:station:USF.COMPS:C12:1,2015-01-03T07:35:00Z,27.4980,-83.7220,22.06,1111122 
COMPS,ioos:station:USF.COMPS:C12:1,2015-01-03T08:05:00Z,27.4980,-83.7220,22.13,1111122 
COMPS,ioos:station:USF.COMPS:C12:1,2015-01-03T08:35:00Z,27.4980,-83.7220,22.21,1111122 
COMPS,ioos:station:USF.COMPS:C12:1,2015-01-03T09:05:00Z,27.4980,-83.7220,22.3,1111122 
COMPS,ioos:station:USF.COMPS:C12:1,2015-01-03T09:35:00Z,27.4980,-83.7220,22.32,1111122 
COMPS,ioos:station:USF.COMPS:C12:1,2015-01-03T10:05:00Z,27.4980,-83.7220,22.55,1111122 
COMPS,ioos:station:USF.COMPS:C12:1,2015-01-03T10:35:00Z,27.4980,-83.7220,22.72,1111122 
COMPS,ioos:station:USF.COMPS:C12:1,2015-01-03T11:05:00Z,27.4980,-83.7220,22.7,1111122 
COMPS,ioos:station:USF.COMPS:C12:1,2015-01-03T11:35:00Z,27.4980,-83.7220,22.72,1111122 
COMPS,ioos:station:USF.COMPS:C12:1,2015-01-03T12:05:00Z,27.4980,-83.7220,22.74,1111122 
COMPS,ioos:station:USF.COMPS:C12:1,2015-01-03T12:35:00Z,27.4980,-83.7220,22.78,1111122 
COMPS,ioos:station:USF.COMPS:C12:1,2015-01-03T13:05:00Z,27.4980,-83.7220,22.73,1111122 
COMPS,ioos:station:USF.COMPS:C12:1,2015-01-03T13:35:00Z,27.4980,-83.7220,22.74,1111122 
COMPS,ioos:station:USF.COMPS:C12:1,2015-01-03T14:05:00Z,27.4980,-83.7220,22.88,1111122 
COMPS,ioos:station:USF.COMPS:C12:1,2015-01-03T14:35:00Z,27.4980,-83.7220,22.83,1111122 
COMPS,ioos:station:USF.COMPS:C12:1,2015-01-03T15:05:00Z,27.4980,-83.7220,22.96,1111122 
COMPS,ioos:station:USF.COMPS:C12:1,2015-01-03T15:35:00Z,27.4980,-83.7220,23.0,1111122 
COMPS,ioos:station:USF.COMPS:C12:1,2015-01-03T16:05:00Z,27.4980,-83.7220,23.14,1111122 
COMPS,ioos:station:USF.COMPS:C12:1,2015-01-03T16:35:00Z,27.4980,-83.7220,23.12,1111122 
COMPS,ioos:station:USF.COMPS:C12:1,2015-01-03T17:05:00Z,27.4980,-83.7220,23.16,1111122 
COMPS,ioos:station:USF.COMPS:C12:1,2015-01-03T17:35:00Z,27.4980,-83.7220,23.23,1111122 
COMPS,ioos:station:USF.COMPS:C12:1,2015-01-03T18:05:00Z,27.4980,-83.7220,23.38,1111122 
COMPS,ioos:station:USF.COMPS:C12:1,2015-01-03T18:35:00Z,27.4980,-83.7220,23.4,1111122 
COMPS,ioos:station:USF.COMPS:C12:1,2015-01-03T19:05:00Z,27.4980,-83.7220,23.31,1111122 
COMPS,ioos:station:USF.COMPS:C12:1,2015-01-03T19:35:00Z,27.4980,-83.7220,23.55,1111122 
COMPS,ioos:station:USF.COMPS:C12:1,2015-01-03T20:05:00Z,27.4980,-83.7220,23.71,1111122 
COMPS,ioos:station:USF.COMPS:C12:1,2015-01-03T20:35:00Z,27.4980,-83.7220,23.73,1111122 
COMPS,ioos:station:USF.COMPS:C12:1,2015-01-03T21:05:00Z,27.4980,-83.7220,23.6,1111122 
COMPS,ioos:station:USF.COMPS:C12:1,2015-01-03T21:35:00Z,27.4980,-83.7220,23.46,1111122 
COMPS,ioos:station:USF.COMPS:C12:1,2015-01-03T22:05:00Z,27.4980,-83.7220,23.47,1111122 
COMPS,ioos:station:USF.COMPS:C12:1,2015-01-03T22:35:00Z,27.4980,-83.7220,23.4,1111122 
COMPS,ioos:station:USF.COMPS:C12:1,2015-01-03T23:05:00Z,27.4980,-83.7220,23.4,1111122 
COMPS,ioos:station:USF.COMPS:C12:1,2015-01-03T23:35:00Z,27.4980,-83.7220,23.5,1111122 
COMPS,ioos:station:USF.COMPS:C12:1,2015-01-04T00:05:00Z,27.4980,-83.7220,23.61,1111122 
COMPS,ioos:station:USF.COMPS:C12:1,2015-01-04T00:35:00Z,27.4980,-83.7220,23.64,1111122 
COMPS,ioos:station:USF.COMPS:C12:1,2015-01-04T01:05:00Z,27.4980,-83.7220,23.75,1111122 
COMPS,ioos:station:USF.COMPS:C12:1,2015-01-04T01:35:00Z,27.4980,-83.7220,23.75,1111122 
COMPS,ioos:station:USF.COMPS:C12:1,2015-01-04T02:05:00Z,27.4980,-83.7220,23.79,1111122 
COMPS,ioos:station:USF.COMPS:C12:1,2015-01-04T02:35:00Z,27.4980,-83.7220,23.79,1111122 
COMPS,ioos:station:USF.COMPS:C12:1,2015-01-04T03:05:00Z,27.4980,-83.7220,23.78,1111122 
COMPS,ioos:station:USF.COMPS:C12:1,2015-01-04T03:35:00Z,27.4980,-83.7220,23.76,1111122 
COMPS,ioos:station:USF.COMPS:C12:1,2015-01-04T05:05:00Z,27.4980,-83.7220,23.84,1111122 
COMPS,ioos:station:USF.COMPS:C12:1,2015-01-04T05:35:00Z,27.4980,-83.7220,23.8,1111122 
COMPS,ioos:station:USF.COMPS:C12:1,2015-01-04T06:05:00Z,27.4980,-83.7220,23.73,1111122 
COMPS,ioos:station:USF.COMPS:C12:1,2015-01-04T06:35:00Z,27.4980,-83.7220,23.66,1111122 
COMPS,ioos:station:USF.COMPS:C12:1,2015-01-04T07:05:00Z,27.4980,-83.7220,23.58,1111122 
COMPS,ioos:station:USF.COMPS:C12:1,2015-01-04T07:35:00Z,27.4980,-83.7220,23.52,1111122 
COMPS,ioos:station:USF.COMPS:C12:1,2015-01-04T08:05:00Z,27.4980,-83.7220,23.37,1111122 
COMPS,ioos:station:USF.COMPS:C12:1,2015-01-04T08:35:00Z,27.4980,-83.7220,23.36,1111122 
COMPS,ioos:station:USF.COMPS:C12:1,2015-01-04T09:05:00Z,27.4980,-83.7220,23.29,1111122 
COMPS,ioos:station:USF.COMPS:C12:1,2015-01-04T09:35:00Z,27.4980,-83.7220,23.4,1111122 
COMPS,ioos:station:USF.COMPS:C12:1,2015-01-04T10:05:00Z,27.4980,-83.7220,23.3,1111122 
COMPS,ioos:station:USF.COMPS:C12:1,2015-01-04T10:35:00Z,27.4980,-83.7220,23.21,1111122 
COMPS,ioos:station:USF.COMPS:C12:1,2015-01-04T11:05:00Z,27.4980,-83.7220,23.26,1111122 
COMPS,ioos:station:USF.COMPS:C12:1,2015-01-04T11:35:00Z,27.4980,-83.7220,23.28,1111122 
COMPS,ioos:station:USF.COMPS:C12:1,2015-01-04T12:05:00Z,27.4980,-83.7220,23.21,1111122 
COMPS,ioos:station:USF.COMPS:C12:1,2015-01-04T12:35:00Z,27.4980,-83.7220,23.28,1111122 
COMPS,ioos:station:USF.COMPS:C12:1,2015-01-04T13:05:00Z,27.4980,-83.7220,23.28,1111122 
COMPS,ioos:station:USF.COMPS:C12:1,2015-01-04T13:35:00Z,27.4980,-83.7220,23.32,1111122 
COMPS,ioos:station:USF.COMPS:C12:1,2015-01-04T14:05:00Z,27.4980,-83.7220,23.33,1111122 
COMPS,ioos:station:USF.COMPS:C12:1,2015-01-04T14:35:00Z,27.4980,-83.7220,23.35,1111122 
COMPS,ioos:station:USF.COMPS:C12:1,2015-01-04T15:05:00Z,27.4980,-83.7220,23.47,1111122 
COMPS,ioos:station:USF.COMPS:C12:1,2015-01-04T15:35:00Z,27.4980,-83.7220,23.51,1111122 
COMPS,ioos:station:USF.COMPS:C12:1,2015-01-04T16:05:00Z,27.4980,-83.7220,23.62,1111122 
COMPS,ioos:station:USF.COMPS:C12:1,2015-01-04T16:35:00Z,27.4980,-83.7220,23.77,1111122 
COMPS,ioos:station:USF.COMPS:C12:1,2015-01-04T17:05:00Z,27.4980,-83.7220,23.8,1111122 
COMPS,ioos:station:USF.COMPS:C12:1,2015-01-04T17:35:00Z,27.4980,-83.7220,23.73,1111122 
COMPS,ioos:station:USF.COMPS:C12:1,2015-01-04T18:05:00Z,27.4980,-83.7220,23.79,1111122 
COMPS,ioos:station:USF.COMPS:C12:1,2015-01-04T18:35:00Z,27.4980,-83.7220,23.85,1111122 
COMPS,ioos:station:USF.COMPS:C12:1,2015-01-04T19:05:00Z,27.4980,-83.7220,24.0,1111122 
COMPS,ioos:station:USF.COMPS:C12:1,2015-01-04T19:35:00Z,27.4980,-83.7220,24.11,1111122 
COMPS,ioos:station:USF.COMPS:C12:1,2015-01-04T20:05:00Z,27.4980,-83.7220,24.03,1111122 
COMPS,ioos:station:USF.COMPS:C12:1,2015-01-04T20:35:00Z,27.4980,-83.7220,24.24,1111122 
COMPS,ioos:station:USF.COMPS:C12:1,2015-01-04T21:05:00Z,27.4980,-83.7220,24.22,1111122 
COMPS,ioos:station:USF.COMPS:C12:1,2015-01-04T21:35:00Z,27.4980,-83.7220,24.13,1111122 
COMPS,ioos:station:USF.COMPS:C12:1,2015-01-04T22:05:00Z,27.4980,-83.7220,23.9,1111122 
COMPS,ioos:station:USF.COMPS:C12:1,2015-01-04T22:35:00Z,27.4980,-83.7220,23.9,1111122 
COMPS,ioos:station:USF.COMPS:C12:1,2015-01-04T23:05:00Z,27.4980,-83.7220,23.81,1111122 
COMPS,ioos:station:USF.COMPS:C12:1,2015-01-04T23:35:00Z,27.4980,-83.7220,21.79,1111122 
COMPS,ioos:station:USF.COMPS:C12:1,2015-01-05T00:05:00Z,27.4980,-83.7220,21.56,1111122 
COMPS,ioos:station:USF.COMPS:C12:1,2015-01-05T00:35:00Z,27.4980,-83.7220,22.12,1111122 
COMPS,ioos:station:USF.COMPS:C12:1,2015-01-05T01:05:00Z,27.4980,-83.7220,22.65,1111122 
COMPS,ioos:station:USF.COMPS:C12:1,2015-01-05T01:35:00Z,27.4980,-83.7220,22.82,1111122 
COMPS,ioos:station:USF.COMPS:C12:1,2015-01-05T02:05:00Z,27.4980,-83.7220,22.8,1111122 
COMPS,ioos:station:USF.COMPS:C12:1,2015-01-05T02:35:00Z,27.4980,-83.7220,22.77,1111122 
COMPS,ioos:station:USF.COMPS:C12:1,2015-01-05T03:05:00Z,27.4980,-83.7220,22.19,1111122 
COMPS,ioos:station:USF.COMPS:C12:1,2015-01-05T03:35:00Z,27.4980,-83.7220,22.37,1111122 
COMPS,ioos:station:USF.COMPS:C12:1,2015-01-05T05:05:00Z,27.4980,-83.7220,22.7,1111122 
COMPS,ioos:station:USF.COMPS:C12:1,2015-01-05T05:35:00Z,27.4980,-83.7220,22.9,1111122 
COMPS,ioos:station:USF.COMPS:C12:1,2015-01-05T06:05:00Z,27.4980,-83.7220,23.09,1111122 
COMPS,ioos:station:USF.COMPS:C12:1,2015-01-05T06:35:00Z,27.4980,-83.7220,23.06,1111122 
COMPS,ioos:station:USF.COMPS:C12:1,2015-01-05T07:05:00Z,27.4980,-83.7220,23.0,1111122 
COMPS,ioos:station:USF.COMPS:C12:1,2015-01-05T07:35:00Z,27.4980,-83.7220,23.01,1111122 
COMPS,ioos:station:USF.COMPS:C12:1,2015-01-05T08:05:00Z,27.4980,-83.7220,22.24,1111122 
COMPS,ioos:station:USF.COMPS:C12:1,2015-01-05T08:35:00Z,27.4980,-83.7220,22.05,1111122 
COMPS,ioos:station:USF.COMPS:C12:1,2015-01-05T09:05:00Z,27.4980,-83.7220,21.64,1111122 
COMPS,ioos:station:USF.COMPS:C12:1,2015-01-05T09:35:00Z,27.4980,-83.7220,20.97,1111122 
COMPS,ioos:station:USF.COMPS:C12:1,2015-01-05T10:05:00Z,27.4980,-83.7220,20.27,1111122 
COMPS,ioos:station:USF.COMPS:C12:1,2015-01-05T10:35:00Z,27.4980,-83.7220,19.86,1111122 
COMPS,ioos:station:USF.COMPS:C12:1,2015-01-05T11:05:00Z,27.4980,-83.7220,19.57,1111122 
COMPS,ioos:station:USF.COMPS:C12:1,2015-01-05T11:35:00Z,27.4980,-83.7220,19.21,1111122 
COMPS,ioos:station:USF.COMPS:C12:1,2015-01-05T12:05:00Z,27.4980,-83.7220,19.07,1111122 
COMPS,ioos:station:USF.COMPS:C12:1,2015-01-05T12:35:00Z,27.4980,-83.7220,19.2,1111122 
COMPS,ioos:station:USF.COMPS:C12:1,2015-01-05T13:05:00Z,27.4980,-83.7220,19.05,1111122 
COMPS,ioos:station:USF.COMPS:C12:1,2015-01-05T13:35:00Z,27.4980,-83.7220,18.88,1111122 
COMPS,ioos:station:USF.COMPS:C12:1,2015-01-05T14:05:00Z,27.4980,-83.7220,18.68,1111122 
COMPS,ioos:station:USF.COMPS:C12:1,2015-01-05T14:35:00Z,27.4980,-83.7220,18.54,1111122 
COMPS,ioos:station:USF.COMPS:C12:1,2015-01-05T15:05:00Z,27.4980,-83.7220,18.41,1111122 
COMPS,ioos:station:USF.COMPS:C12:1,2015-01-05T15:35:00Z,27.4980,-83.7220,18.12,1111122 
COMPS,ioos:station:USF.COMPS:C12:1,2015-01-05T16:05:00Z,27.4980,-83.7220,18.29,1111122 
COMPS,ioos:station:USF.COMPS:C12:1,2015-01-05T16:35:00Z,27.4980,-83.7220,18.3,1111122 
COMPS,ioos:station:USF.COMPS:C12:1,2015-01-05T17:05:00Z,27.4980,-83.7220,18.09,1111122 
COMPS,ioos:station:USF.COMPS:C12:1,2015-01-05T17:35:00Z,27.4980,-83.7220,17.95,1111122 
COMPS,ioos:station:USF.COMPS:C12:1,2015-01-05T18:05:00Z,27.4980,-83.7220,17.94,1111122 
COMPS,ioos:station:USF.COMPS:C12:1,2015-01-05T18:35:00Z,27.4980,-83.7220,17.85,1111122 
COMPS,ioos:station:USF.COMPS:C12:1,2015-01-05T19:05:00Z,27.4980,-83.7220,17.82,1111122 
COMPS,ioos:station:USF.COMPS:C12:1,2015-01-05T19:35:00Z,27.4980,-83.7220,17.89,1111122 
COMPS,ioos:station:USF.COMPS:C12:1,2015-01-05T20:05:00Z,27.4980,-83.7220,18.02,1111122 
COMPS,ioos:station:USF.COMPS:C12:1,2015-01-05T20:35:00Z,27.4980,-83.7220,18.22,1111122 
COMPS,ioos:station:USF.COMPS:C12:1,2015-01-05T21:05:00Z,27.4980,-83.7220,18.24,1111122 
COMPS,ioos:station:USF.COMPS:C12:1,2015-01-05T21:35:00Z,27.4980,-83.7220,18.56,1111122 
COMPS,ioos:station:USF.COMPS:C12:1,2015-01-05T22:05:00Z,27.4980,-83.7220,18.52,1111122 
COMPS,ioos:station:USF.COMPS:C12:1,2015-01-05T22:35:00Z,27.4980,-83.7220,18.52,1111122 
COMPS,ioos:station:USF.COMPS:C12:1,2015-01-05T23:05:00Z,27.4980,-83.7220,18.49,1111122 
COMPS,ioos:station:USF.COMPS:C12:1,2015-01-05T23:35:00Z,27.4980,-83.7220,18.57,1111122 
COMPS,ioos:station:USF.COMPS:C12:1,2015-01-06T00:05:00Z,27.4980,-83.7220,18.7,1111122 
COMPS,ioos:station:USF.COMPS:C12:1,2015-01-06T00:35:00Z,27.4980,-83.7220,18.98,1111122 
COMPS,ioos:station:USF.COMPS:C12:1,2015-01-06T01:05:00Z,27.4980,-83.7220,18.84,1111122 
COMPS,ioos:station:USF.COMPS:C12:1,2015-01-06T01:35:00Z,27.4980,-83.7220,18.92,1111122 
COMPS,ioos:station:USF.COMPS:C12:1,2015-01-06T02:05:00Z,27.4980,-83.7220,19.01,1111122 
COMPS,ioos:station:USF.COMPS:C12:1,2015-01-06T02:35:00Z,27.4980,-83.7220,19.04,1111122 
COMPS,ioos:station:USF.COMPS:C12:1,2015-01-06T03:05:00Z,27.4980,-83.7220,19.35,1111122 
COMPS,ioos:station:USF.COMPS:C12:1,2015-01-06T03:35:00Z,27.4980,-83.7220,19.54,1111122 
COMPS,ioos:station:USF.COMPS:C12:1,2015-01-06T05:05:00Z,27.4980,-83.7220,19.32,1111122 
COMPS,ioos:station:USF.COMPS:C12:1,2015-01-06T05:35:00Z,27.4980,-83.7220,19.0,1111122 
COMPS,ioos:station:USF.COMPS:C12:1,2015-01-06T06:05:00Z,27.4980,-83.7220,18.83,1111122 
COMPS,ioos:station:USF.COMPS:C12:1,2015-01-06T06:35:00Z,27.4980,-83.7220,18.71,1111122 
COMPS,ioos:station:USF.COMPS:C12:1,2015-01-06T07:05:00Z,27.4980,-83.7220,18.72,1111122 
COMPS,ioos:station:USF.COMPS:C12:1,2015-01-06T07:35:00Z,27.4980,-83.7220,18.86,1111122 
COMPS,ioos:station:USF.COMPS:C12:1,2015-01-06T08:05:00Z,27.4980,-83.7220,18.88,1111122 
COMPS,ioos:station:USF.COMPS:C12:1,2015-01-06T08:35:00Z,27.4980,-83.7220,18.79,1111122 
COMPS,ioos:station:USF.COMPS:C12:1,2015-01-06T09:05:00Z,27.4980,-83.7220,18.63,1111122 
COMPS,ioos:station:USF.COMPS:C12:1,2015-01-06T09:35:00Z,27.4980,-83.7220,18.47,1111122 
COMPS,ioos:station:USF.COMPS:C12:1,2015-01-06T10:05:00Z,27.4980,-83.7220,18.38,1111122 
COMPS,ioos:station:USF.COMPS:C12:1,2015-01-06T10:35:00Z,27.4980,-83.7220,18.42,1111122 
COMPS,ioos:station:USF.COMPS:C12:1,2015-01-06T11:05:00Z,27.4980,-83.7220,18.35,1111122 
COMPS,ioos:station:USF.COMPS:C12:1,2015-01-06T11:35:00Z,27.4980,-83.7220,18.32,1111122 
COMPS,ioos:station:USF.COMPS:C12:1,2015-01-06T12:05:00Z,27.4980,-83.7220,18.55,1111122 
COMPS,ioos:station:USF.COMPS:C12:1,2015-01-06T12:35:00Z,27.4980,-83.7220,18.68,1111122 
COMPS,ioos:station:USF.COMPS:C12:1,2015-01-06T13:05:00Z,27.4980,-83.7220,18.89,1111122 
COMPS,ioos:station:USF.COMPS:C12:1,2015-01-06T13:35:00Z,27.4980,-83.7220,19.21,1111122 
COMPS,ioos:station:USF.COMPS:C12:1,2015-01-06T14:05:00Z,27.4980,-83.7220,19.27,1111122 
COMPS,ioos:station:USF.COMPS:C12:1,2015-01-06T14:35:00Z,27.4980,-83.7220,19.46,1111122 
COMPS,ioos:station:USF.COMPS:C12:1,2015-01-06T15:05:00Z,27.4980,-83.7220,19.63,1111122 
COMPS,ioos:station:USF.COMPS:C12:1,2015-01-06T15:35:00Z,27.4980,-83.7220,19.66,1111122 
COMPS,ioos:station:USF.COMPS:C12:1,2015-01-06T16:05:00Z,27.4980,-83.7220,19.89,1111122 
COMPS,ioos:station:USF.COMPS:C12:1,2015-01-06T16:35:00Z,27.4980,-83.7220,19.86,1111122 
COMPS,ioos:station:USF.COMPS:C12:1,2015-01-06T17:05:00Z,27.4980,-83.7220,19.97,1111122 
COMPS,ioos:station:USF.COMPS:C12:1,2015-01-06T17:35:00Z,27.4980,-83.7220,20.15,1111122 
COMPS,ioos:station:USF.COMPS:C12:1,2015-01-06T18:05:00Z,27.4980,-83.7220,20.2,1111122 
COMPS,ioos:station:USF.COMPS:C12:1,2015-01-06T18:35:00Z,27.4980,-83.7220,20.37,1111122 
COMPS,ioos:station:USF.COMPS:C12:1,2015-01-06T19:05:00Z,27.4980,-83.7220,20.75,1111122 
COMPS,ioos:station:USF.COMPS:C12:1,2015-01-06T19:35:00Z,27.4980,-83.7220,20.68,1111122 
COMPS,ioos:station:USF.COMPS:C12:1,2015-01-06T20:05:00Z,27.4980,-83.7220,19.68,1111122 
COMPS,ioos:station:USF.COMPS:C12:1,2015-01-06T20:35:00Z,27.4980,-83.7220,19.89,1111122 